Home   Weather   Cali   Past weeks

Flag for Colombia Past Weather in Cali, Colombia — Yesterday and Last 2 Weeks

Now
73 °F

Scattered clouds.


Feels Like: 73 °F
Forecast: 66 / 80 °F
Wind: 2 mph from North

Location: Cali / Alfonso Bonillaaragon

Current Time: Jan 20, 2017 at 11:26:34 am

Latest Report: Jan 20, 2017 at 10:00 am


Visibility: N/A

Pressure: 30.07 "Hg (26.93 "Hg at 955m altitude)

Humidity: 83%

Dew Point: 68 °F

Location of CaliLocation

Past Weather in Cali — Graph

°F

Cali Temperature Yesterday

Maximum temperature yesterday: 84 °F (at 3:00 pm)
Minimum temperature yesterday: 64 °F (at 5:00 am)
Average temperature yesterday: 72 °F

High & Low Weather Summary for the Past Weeks

 TemperatureHumidityPressure
High88 °F (Jan 7, 2:00 pm)100% (Jan 5, 11:00 pm)30.10 "Hg (Jan 5, 11:00 pm)
Low61 °F (Jan 15, 6:00 am)27% (Jan 7, 2:00 pm)29.84 "Hg (Jan 11, 4:00 pm)
Average73 °F82%29.97 "Hg
* Reported Jan 5 10:00 am — Jan 20 10:00 am, Cali, Weather by CustomWeather, © 2017

Note: Actual official high and low records may vary slightly from our data, if they occured in-between our weather recording intervals... More about our weather records

Advertising

Cali Weather History for the Previous 24 Hours

Scroll right to see more
 ConditionsComfort  
Time TempWeatherWind HumidityBarometerVisibility
10:00 am
Fri, Jan 20
73 °FScattered clouds.2 mph83%30.07 "HgN/A
9:00 am72 °FBroken clouds.5 mph88%30.07 "HgN/A
8:00 am68 °FScattered showers. Broken clouds.3 mph94%30.05 "Hg5 mi
7:00 am66 °FBroken clouds.3 mph94%30.03 "HgN/A
6:00 am66 °FScattered showers. Passing clouds.6 mph94%30.01 "Hg5 mi
5:30 am66 °FScattered showers. Passing clouds.7 mph94%30.00 "Hg5 mi
5:00 am66 °FPartly cloudy.5 mph94%30.00 "Hg4 mi
4:00 am64 °FRain. Mostly cloudy.5 mph100%29.99 "Hg3 mi
3:00 am68 °FRain. Passing clouds.3 mph100%29.99 "Hg4 mi
2:15 am68 °FPassing clouds.5 mph100%30.00 "Hg5 mi
1:00 am70 °FPassing clouds.3 mph94%30.02 "HgN/A
12:00 am70 °FPassing clouds.3 mph94%30.04 "HgN/A
11:00 pm
Thu, Jan 19
70 °FPassing clouds.7 mph94%30.03 "HgN/A
10:00 pm70 °FPassing clouds.7 mph94%30.02 "HgN/A
9:00 pm73 °FPassing clouds.7 mph78%30.00 "HgN/A
8:00 pm73 °FPassing clouds.12 mph78%29.97 "HgN/A
7:00 pm75 °FPartly cloudy.No wind74%29.94 "HgN/A
6:00 pm77 °FPartly sunny.10 mph69%29.93 "HgN/A
5:00 pm81 °FPartly sunny.10 mph62%29.89 "HgN/A
4:00 pm82 °FScattered clouds.9 mph58%29.89 "HgN/A
3:00 pm84 °FScattered clouds.2 mph58%29.90 "HgN/A
2:00 pm82 °FScattered clouds.3 mph58%29.92 "HgN/A
1:00 pm81 °FPartly sunny.3 mph66%29.97 "Hg6 mi
12:00 pm79 °FBroken clouds.6 mph70%30.01 "Hg4 mi
11:00 am77 °FScattered clouds.3 mph79%30.04 "Hg4 mi
Weather by CustomWeather, © 2017

See weather overviewHow to use our weather pages